TimeEDT,TemperatureF,Dew PointF,Humidity,Sea Level PressureIn,VisibilityMPH,Wind Direction,Wind SpeedMPH,Gust SpeedMPH,PrecipitationIn,Events,Conditions,WindDirDegrees,DateUTC
12:52 AM,52.0,46.9,83,29.73,10.0,SW,6.9,-,N/A,,Clear,230,2012-10-01 04:52:00
1:52 AM,52.0,46.9,83,29.72,10.0,WSW,5.8,-,N/A,,Clear,250,2012-10-01 05:52:00
2:52 AM,52.0,46.9,83,29.72,10.0,WSW,8.1,-,N/A,,Scattered Clouds,240,2012-10-01 06:52:00
3:52 AM,52.0,46.9,83,29.71,10.0,SW,6.9,-,N/A,,Mostly Cloudy,220,2012-10-01 07:52:00
4:52 AM,53.1,46.9,80,29.71,10.0,WSW,9.2,-,N/A,,Clear,240,2012-10-01 08:52:00
5:52 AM,53.1,46.9,80,29.72,10.0,SSW,8.1,-,N/A,,Clear,200,2012-10-01 09:52:00
6:52 AM,52.0,46.9,83,29.73,10.0,SSW,8.1,-,N/A,,Scattered Clouds,210,2012-10-01 10:52:00
7:52 AM,53.1,46.9,80,29.73,10.0,South,9.2,17.3,N/A,,Mostly Cloudy,190,2012-10-01 11:52:00
8:52 AM,55.9,46.9,72,29.74,10.0,SSW,12.7,21.9,N/A,,Overcast,210,2012-10-01 12:52:00
9:52 AM,57.0,46.9,69,29.74,10.0,SW,9.2,23.0,N/A,,Overcast,220,2012-10-01 13:52:00
10:18 AM,57.2,48.2,72,29.74,10.0,WSW,11.5,20.7,N/A,,Overcast,250,2012-10-01 14:18:00
10:52 AM,59.0,48.0,67,29.75,10.0,Variable,6.9,29.9,N/A,,Overcast,0,2012-10-01 14:52:00
11:31 AM,59.0,48.2,67,29.75,10.0,SW,10.4,17.3,N/A,,Overcast,220,2012-10-01 15:31:00
11:52 AM,60.1,48.9,67,29.76,10.0,SW,11.5,21.9,N/A,,Overcast,220,2012-10-01 15:52:00
12:07 PM,60.8,48.2,63,29.76,10.0,WSW,10.4,17.3,N/A,,Overcast,240,2012-10-01 16:07:00
12:32 PM,60.8,48.2,63,29.77,10.0,WSW,8.1,-,N/A,,Overcast,240,2012-10-01 16:32:00
12:52 PM,60.1,48.9,67,29.77,10.0,WSW,12.7,21.9,N/A,,Overcast,250,2012-10-01 16:52:00
1:18 PM,60.8,48.2,63,29.77,10.0,West,12.7,19.6,N/A,,Overcast,260,2012-10-01 17:18:00
1:52 PM,62.1,50.0,65,29.78,10.0,WSW,8.1,18.4,N/A,,Overcast,250,2012-10-01 17:52:00
2:52 PM,63.0,51.1,65,29.78,10.0,Variable,4.6,19.6,N/A,,Overcast,0,2012-10-01 18:52:00
3:52 PM,63.0,51.1,65,29.80,10.0,WSW,12.7,21.9,N/A,,Mostly Cloudy,240,2012-10-01 19:52:00
4:52 PM,64.0,51.1,63,29.82,10.0,Variable,6.9,16.1,N/A,,Mostly Cloudy,0,2012-10-01 20:52:00
5:52 PM,63.0,51.1,65,29.84,10.0,West,5.8,-,N/A,,Scattered Clouds,260,2012-10-01 21:52:00
6:52 PM,59.0,52.0,78,29.86,10.0,Calm,Calm,-,N/A,,Clear,0,2012-10-01 22:52:00
7:52 PM,55.9,51.1,84,29.90,10.0,SSW,3.5,-,N/A,,Clear,210,2012-10-01 23:52:00
8:52 PM,54.0,51.1,90,29.92,10.0,Calm,Calm,-,N/A,,Clear,0,2012-10-02 00:52:00
9:52 PM,51.1,48.9,92,29.94,10.0,Calm,Calm,-,N/A,,Clear,0,2012-10-02 01:52:00
11:52 PM,52.0,50.0,93,29.96,10.0,Calm,Calm,-,N/A,,Clear,0,2012-10-02 03:52:00